Location: Recife
(8.0585°S, 34.8848°W)
Time: 09:28:19
(UTC-03:00)

Courier 1B Rocket - Pass Details

Date: 22 April 2026
Orbit: 920 x 1201 km, 28.3° (Epoch: 11 May)

Event Time Altitude Azimuth Distance (km) Brightness Sun altitude
Exits shadow 03:26:18 27° 175° (S) 1,692 6.2 -28.9°
Drops below altitude 10° 03:30:11 10° 142° (SE) 2,653 7.6 -28.0°
Sets 03:33:10 0° 131° (SE) 3,630 8.5 -27.2°
